Location: Guayaquil
(2.1667°S, 79.9000°W)
Time: 00:22:44
(UTC-05:00)

DNEPR OBJECT AB - Visible Passes

Search period start: 22 November 2017 00:00
Search period end: 02 December 2017 00:00
Orbit: 588 x 704 km, 97.6° (Epoch: 21 November)

Date Brightness Start Highest point End Pass type
(mag) Time Alt. Az. Time Alt. Az. Time Alt. Az.
22 Nov ? 19:38:30 10° S 19:43:06 48° WSW 19:47:37 10° NNW visible
23 Nov ? 20:04:39 10° SSW 20:08:20 22° WSW 20:11:57 10° NW visible
24 Nov ? 18:52:48 10° SSE 18:57:14 39° E 19:01:35 10° N visible
25 Nov ? 19:17:44 10° SSE 19:22:31 89° ENE 19:27:09 10° N visible
26 Nov ? 19:43:18 10° S 19:47:46 40° WSW 19:52:06 10° NNW visible
27 Nov ? 18:33:02 10° SE 18:36:37 21° E 18:40:06 10° NNE visible
27 Nov ? 20:09:41 10° SSW 20:12:58 19° WSW 20:16:13 10° WNW visible
28 Nov ? 18:57:22 10° SSE 19:01:54 46° E 19:06:18 10° N visible
29 Nov ? 19:22:27 10° S 19:27:10 77° WSW 19:31:44 10° NNW visible
30 Nov ? 19:48:09 10° SSW 19:52:24 34° WSW 19:56:32 10° NW visible
01 Dec ? 18:37:27 10° SE 18:41:15 25° E 18:44:57 10° NNE visible
01 Dec ? 20:14:49 10° SW 20:17:36 16° WSW 20:20:21 10° WNW visible
